This is the latest recevied weather packets stored in our database for station/object HB9GPU-10. If no packets are shown the sender has not sent any weather packets the latest 10 day(s).
| Time | Temp. | Humidity | Pressure | Rain* | Wind** | Luminosity | Snow |
|---|---|---|---|---|---|---|---|
| 1788273204 | 26.11° C | 31% | 1025.2 hPa | - | - | - | - |
| 1788272304 | 26.11° C | 31% | 1025.2 hPa | - | - | - | - |
| 1788271404 | 26.67° C | 31% | 1025.1 hPa | - | - | - | - |
| 1788270504 | 26.11° C | 31% | 1025.2 hPa | - | - | - | - |
| 1788269604 | 26.67° C | 31% | 1025.2 hPa | - | - | - | - |
| 1788268704 | 26.67° C | 31% | 1025.4 hPa | - | - | - | - |
| 1788267803 | 26.67° C | 30% | 1025.6 hPa | - | - | - | - |
| 1788266903 | 26.11° C | 32% | 1025.6 hPa | - | - | - | - |
| 1788266003 | 25.56° C | 32% | 1025.7 hPa | - | - | - | - |
| 1788265103 | 26.11° C | 30% | 1025.7 hPa | - | - | - | - |
| 1788264203 | 26.67° C | 30% | 1025.8 hPa | - | - | - | - |
| 1788263303 | 26.11° C | 31% | 1025.9 hPa | - | - | - | - |
| 1788262402 | 25.56° C | 31% | 1026 hPa | - | - | - | - |
| 1788261502 | 25.56° C | 31% | 1026 hPa | - | - | - | - |
| 1788260602 | 25.56° C | 32% | 1026.1 hPa | - | - | - | - |
| 1788259702 | 25.56° C | 31% | 1026.3 hPa | - | - | - | - |
| 1788258802 | 25.56° C | 31% | 1026.4 hPa | - | - | - | - |
| 1788257901 | 25° C | 32% | 1026.6 hPa | - | - | - | - |
| 1788257001 | 25° C | 32% | 1026.7 hPa | - | - | - | - |
| 1788256101 | 25° C | 33% | 1026.9 hPa | - | - | - | - |
| 1788255220 | 25° C | 32% | 1026.9 hPa | - | - | - | - |
| 1788254301 | 25° C | 31% | 1026.9 hPa | - | - | - | - |
| 1788253401 | 25° C | 32% | 1027 hPa | - | - | - | - |
| 1788252500 | 25° C | 31% | 1026.9 hPa | - | - | - | - |
| 1788251600 | 24.44° C | 33% | 1026.8 hPa | - | - | - | - |
* Rain since midnight (hover to see other rain measurements)
** Current wind speed in m/s (hover to see current wind gust speed)